Retour au catalogue

STARLINK-35118

ActifCommunicationsVLEO
NORAD 66858·PAYLOAD·🇺🇸 United States

Lancé Dec 2, 2025 depuis Cape Canaveral Space Force Station

Loading…

Prochains Passages (prochaines 24 heures)

TLE

FraisSource: CelesTrak SupGP

Époque: Sep 15, 2026, 02:32 UTC

1 66858C 25281L   26258.10604167  .00037702  00000+0  13654-2 0  2586
2 66858  43.0033 353.8505 0001435 265.8900  76.3954 15.27564099    13

Suivez STARLINK-35118 en temps réel avec AllMySat

Download on the App Store